Regional Weather Roundup
Issued by NWS

Home | Current Version | Previous Version | Text Only | Print | Product List | Glossary On
Versions: 1 2 3 4 5 6 7 8 9 10 11 12 13 14 15 16 17 18 19 20 21 22 23 24 25 26 27 28 29 30 31 32 33 34 35 36 37 38 39 40 41 42 43 44 45 46 47 48 49 50
000
ASUS43 KMPX 172310
RWRMN
WEATHER ROUNDUP FOR MINNESOTA
NATIONAL WEATHER SERVICE TWIN CITIES/CHANHASSEN MN
500 PM CST TUE JAN 17 2017


NOTE: "FAIR" INDICATES FEW OR NO CLOUDS BELOW 12,000 FEET WITH NO
SIGNIFICANT WEATHER AND/OR OBSTRUCTIONS TO VISIBILITY. N/A MEANS
CURRENT SKY AND/OR WEATHER CONDITIONS ARE NOT AVAILABLE.

MNZ060>063-068>070-180000-
   Twin Cities Metro

CITY           SKY/WX    TMP DP  RH WIND       PRES   REMARKS
TWIN CITIES    CLOUDY    34  30  85 W9        29.99R WCI  27
ST PAUL        CLOUDY    34  33  96 W3        30.01R
CRYSTAL        CLOUDY    33  29  85 W5        29.98R WCI  29
BLAINE         CLOUDY    36  34  93 MISG      29.97S
LAKEVILLE      CLOUDY    32  32 100 W13       30.00R WCI  22
EDEN PRAIRIE   CLOUDY    34  31  88 CALM      29.98S
SOUTH ST PAUL  CLOUDY    35  33  92 W5        30.00R WCI  31
LAKE ELMO      CLOUDY    32  32 100 W7        30.00R WCI  26
$$
MNZ001>005-007-008-013>017-022>024-027-028-180000-
   Northwest Minnesota

CITY           SKY/WX    TMP DP  RH WIND       PRES   REMARKS
BEMIDJI        CLOUDY    31  21  65 SW6       29.85S WCI  25
HALLOCK        CLEAR     19  16  86 S20       29.74F WCI   4
ROSEAU         CLOUDY    25  19  80 S15       29.76F WCI  12
WARROAD        CLOUDY    27  21  80 S8G16     29.76F WCI  18
THIEF RVR FALL CLOUDY    22  18  85 S16       29.81F WCI   8
CROOKSTON      CLOUDY    18  16  93 S18       29.83F WCI   2
FOSSTON        CLOUDY    21  18  86 S15       29.85F WCI   8
DETROIT LAKES  CLOUDY    25  21  86 S7        29.90S WCI  17
MOORHEAD       CLOUDY    18  16  93 S15       29.90S WCI   3
PARK RAPIDS    CLOUDY    24  15  68 S8        29.88S WCI  15
MAHNOMEN       FAIR      22  18  81 S9        29.86F WCI  12
$$
MNZ006-009>011-018-025>026-180000-
   North Central Minnesota

CITY           SKY/WX    TMP DP  RH WIND       PRES   REMARKS
BAUDETTE       CLOUDY    26  16  65 S7        29.78F WCI  18
FLAG ISLAND    CLOUDY    16  12  86 S13       29.74F WCI   2
INTL FALLS     CLOUDY    25  14  63 SW6       29.82R WCI  18
WASKISH        CLEAR     18  14  86 CALM      29.83F
BIG FORK       CLOUDY    27  18  69 S3        29.85S
LONGVILLE      CLOUDY    30  18  59 S5        29.88S WCI  25
GRAND RAPIDS   CLOUDY    31  17  56 S7        29.89S WCI  24
CRANE LAKE     PTCLDY    28  19  69 CALM      29.86R
ORR            CLEAR     30  16  55 CALM      29.83R
COOK           CLOUDY    30  18  59 SW5       29.86R WCI  25
WALKER         FAIR      29  19  65 SW6       29.87S WCI  23
$$
MNZ012-019>021-037-180000-
   Northeast Minnesota

CITY           SKY/WX    TMP DP  RH WIND       PRES   REMARKS
DULUTH         CLEAR     34  25  69 SW6       29.88F WCI  29
ELY            CLEAR     28  18  64 S3        29.84S
HIBBING        CLOUDY    31  14  49 SW3       29.87R
EVELETH        CLOUDY    32  15  50 S3        29.88S
DULUTH HARBOR  CLEAR     34  28  80 CALM      29.93S
TWO HARBORS    CLEAR     34  28  80 CALM      29.88S HAZE
SILVER BAY     CLEAR     28  28 100 SW3       29.87S FOG
GRAND MARAIS     N/A     33  30  88 W7        29.90F WCI  27
G MARAIS ARPRT MOCLDY    25  21  86 S6        29.86S FOG     WCI  18
$$
MNZ029>031-032-039>041-046>048-054>057-064-180000-
   West Central Minnesota

CITY           SKY/WX    TMP DP  RH WIND       PRES   REMARKS
FERGUS FALLS   CLOUDY    18  14  86 SE8       29.96F WCI   7
WHEATON        CLOUDY    28  25  86 SE8       29.95F WCI  20
MORRIS         CLOUDY    19  16  86 SE8       29.94F WCI   9
ALEXANDRIA     CLOUDY    20  14  77 S7        29.94S WCI  11
ELBOW LAKE     FAIR      20  17  89 E9        29.92F FOG     WCI   9
WADENA         CLOUDY    21  16  79 SW3       29.91S
GLENWOOD       CLOUDY    19  14  79 SW8       29.95S WCI   9
APPLETON       CLOUDY    21  16  79 SE6       29.96F WCI  14
ORTONVILLE     CLOUDY    21  16  79 CALM      29.94F
MADISON        CLOUDY    25  19  80 S7        29.97S WCI  17
WILLMAR        FAIR      21  18  86 CALM      29.99S
$$
MNZ033>034-036-042>043-049>051-058-059-180000-
   Central Minnesota

CITY           SKY/WX    TMP DP  RH WIND       PRES   REMARKS
ST CLOUD       CLOUDY    29  27  92 SW9       29.96S WCI  20
SAUK CENTRE    FAIR      23  16  76 SW6       29.96R WCI  15
PAYNESVILLE    CLOUDY    26  20  79 S7        29.97R WCI  18
AITKIN         CLOUDY    34  12  40 S3        29.90F
PINE RIVER     CLOUDY    28  18  64 SW6       29.93F WCI  22
BRAINERD       CLOUDY    27  15  61 SW7       29.92S WCI  19
STAPLES        CLOUDY    23  14  68 S5        29.92F WCI  17
LONG PRAIRIE   FAIR      27  16  63 S7        29.95R WCI  19
LITTLE FALLS   CLOUDY    27  19  74 S3        29.95S
LITCHFIELD     FOG       27  25  93 SW5       29.98S VSB 1   WCI  21
BUFFALO        CLOUDY    31  29  92 SW7       29.99S WCI  24
MAPLE LAKE     CLOUDY    32  31  96 SW7       29.99R WCI  26
HUTCHINSON     CLOUDY    27  26  99 W8        30.01R FOG     WCI  18
$$
MNZ037-044-045-052-053-180000-
   East Central Minnesota

CITY           SKY/WX    TMP DP  RH WIND       PRES   REMARKS
PRINCETON      CLEAR     30  27  86 SW7       29.97R WCI  23
MORA           CLEAR     30  27  86 SW5       29.97S WCI  25
CAMBRIDGE      MOCLDY    34  27  75 SW5       29.95S WCI  30
RUSH CITY      MOCLDY    30  27  86 CALM      29.96S
MOOSE LAKE     CLEAR     36  27  69 SW5       29.89F
HINCKLEY       FAIR      32  27  80 S7        29.94S WCI  26
CLOQUET        CLEAR     36  25  64 SW3       29.89F
MCGREGOR       CLEAR     30  21  69 S5        29.91S WCI  25
$$
MNZ071>073-080-081-089-090-097-098-180000-
   Southwest Minnesota

CITY           SKY/WX    TMP DP  RH WIND       PRES   REMARKS
MONTEVIDEO     CLOUDY    25  16  68 CALM      29.99F
GRANITE FALLS  CLOUDY    23  19  87 S7        29.99F WCI  14
CANBY            N/A     28  22  77 CALM      29.98S
MARSHALL       CLOUDY    28  22  78 SW7       29.98F WCI  21
REDWOOD FALLS  CLOUDY    27  19  72 CALM      29.99S
OLIVIA         CLOUDY    23  18  80 W3        29.99S
PIPESTONE      CLOUDY    28  25  86 SW7       29.98R WCI  21
WINDOM         CLEAR     30  28  93 SW6       29.99R WCI  24
WORTHINGTON    CLEAR     29  26  89 MISG        N/A
JACKSON        CLEAR     30  27  86 SW5       30.00S WCI  25
TRACY          CLEAR     30  26  85 SW12      29.98S WCI  21
SLAYTON        CLEAR     28  25  88 SW10      29.99S WCI  18
$$
MNZ065>067-074>077-082>085-091>093-180000-
   South Central Minnesota

CITY           SKY/WX    TMP DP  RH WIND       PRES   REMARKS
MANKATO        CLEAR     30  29  96 SW8       30.01S FOG     WCI  22
NEW ULM        CLOUDY    28  28 100 CALM      30.00F FOG
ST JAMES       MOCLDY    30  30 100 S3        30.01F
FAIRMONT       CLOUDY    31  30  96 W7        30.02S WCI  24
GLENCOE        CLOUDY    32  32  99 SW6       29.99R FOG     WCI  26
FARIBAULT        N/A     34  32  93 CALM      30.01R FOG
OWATONNA       FOG       32  30  93 CALM      30.01R VSB 1
WASECA         FOG       32  32 100 W5        30.03R VSB 1   WCI  27
ALBERT LEA     FOG       30  30 100 W3        30.01R VSB 3/4
$$
MNZ078>079-086>088-094>096-180000-
   Southeast Minnesota

CITY           SKY/WX    TMP DP  RH WIND       PRES   REMARKS
ROCHESTER      FOG       32  32 100 NW14      29.98R VSB 1   WCI  22
RED WING       CLOUDY    36  30  80 NW6       29.99R FOG
STANTON        CLOUDY    34  32  92 W13       29.99R FOG     WCI  25
DODGE CENTER   CLOUDY    32  32 100 CALM      29.99R FOG
WINONA         CLOUDY    34  32  93 NW3       29.99R
AUSTIN         CLOUDY    34  30  86 NW7       30.00R FOG     WCI  28
PRESTON        FOG       32  31  96 NW13      29.98R VSB 3/4 WCI  22
$$
ABBREVIATIONS USED IN REMARKS
   TC - TEMPERATURES IN CELSIUS
  WCI - WIND CHILL INDEX
   HX - HEAT INDEX
  VSB - VISIBILITY
$$




USA.gov is the U.S. government's official web portal to all federal, state and local government web resources and services.